Location: Newark
(40.7066°N, 111.8219°W)
Time: 02:00:50
(UTC+00:00)

Vanguard 2 Rocket - All Passes

Search period start: 22 November 2019 00:00
Search period end: 02 December 2019 00:00
Orbit: 554 x 3326 km, 32.9° (Epoch: 21 November)

Date Brightness Start Highest point End Pass type
(mag) Time Alt. Az. Time Alt. Az. Time Alt. Az.
22 Nov - 08:09:44 10° SW 08:13:05 26° SSE 08:16:59 10° ESE night (unlit)
22 Nov - 10:21:15 10° WSW 10:25:24 34° S 10:31:29 10° ESE visible
22 Nov - 12:33:43 10° WSW 12:38:33 22° SSW 12:45:33 10° SSE visible
23 Nov - 07:11:04 10° SSW 07:14:01 20° SSE 07:17:04 10° ESE night (unlit)
23 Nov - 09:22:28 10° WSW 09:26:11 32° S 09:31:07 10° ESE visible
23 Nov - 11:34:35 10° WSW 11:38:56 25° SSW 11:45:13 10° SE visible
23 Nov - 13:50:08 10° SW 13:52:37 11° SSW 13:55:27 10° S visible
24 Nov - 06:12:29 10° SSW 06:14:56 15° SSE 06:17:14 10° SE night (unlit)
24 Nov - 08:23:37 10° WSW 08:27:05 29° S 08:31:07 10° ESE night (unlit)
24 Nov - 10:35:37 10° WSW 10:39:30 27° S 10:44:56 10° SE visible
24 Nov - 12:49:24 10° SW 12:52:44 14° SSW 12:56:53 10° S visible
25 Nov - 05:14:14 10° S 05:15:43 11° SSE 05:17:06 10° SE night (unlit)
25 Nov - 07:24:39 10° SW 07:28:01 25° S 07:31:26 10° ESE night (unlit)
25 Nov - 09:36:42 10° WSW 09:40:16 28° S 09:44:52 10° SE visible
25 Nov - 11:49:41 10° SW 11:53:05 16° SSW 11:57:28 10° SSE visible
26 Nov - 06:25:32 10° SW 06:28:56 22° SSE 06:32:00 10° ESE night (unlit)
26 Nov - 08:37:42 10° WSW 08:41:07 28° S 08:45:04 10° ESE night (unlit)
26 Nov - 10:50:21 10° WSW 10:53:37 19° SSW 10:57:50 10° SSE visible
27 Nov - 05:26:15 10° SSW 05:29:46 18° SSE 05:32:42 10° ESE night (unlit)
27 Nov - 07:38:32 10° WSW 07:42:03 28° S 07:45:35 10° ESE night (unlit)
27 Nov - 09:51:09 10° WSW 09:54:20 21° SSW 09:58:15 10° SE visible
28 Nov - 04:26:55 10° SSW 04:30:28 16° SSE 04:33:21 10° SE visible
28 Nov - 06:39:08 10° SW 06:42:59 27° S 06:46:20 10° ESE night (unlit)
28 Nov - 08:51:59 10° WSW 08:55:10 24° S 08:58:47 10° SE night (unlit)
28 Nov - 11:06:22 10° SW 11:07:44 11° SSW 11:09:15 10° S visible
29 Nov - 03:27:40 10° S 03:31:00 14° SSE 03:33:44 10° SE visible
29 Nov - 05:39:27 10° SW 05:43:50 26° S 05:47:18 10° ESE night (unlit)
29 Nov - 07:52:37 10° WSW 07:56:05 27° S 07:59:32 10° SE night (unlit)
29 Nov - 10:06:13 10° SW 10:08:24 14° SSW 10:10:51 10° SSE night (unlit)
30 Nov - 02:29:02 10° S 02:31:20 11° SSE 02:33:22 10° SE visible
30 Nov - 04:39:32 10° SW 04:44:35 24° S 04:48:17 10° ESE visible
30 Nov - 06:53:02 10° WSW 06:57:01 29° S 07:00:29 10° ESE night (unlit)
30 Nov - 09:06:33 10° WSW 09:09:12 17° SSW 09:12:04 10° SSE night (unlit)
01 Dec - 03:39:27 10° SSW 03:45:09 22° SSE 03:49:15 10° ESE visible
01 Dec - 05:53:06 10° WSW 05:57:55 31° S 06:01:34 10° ESE night (unlit)
01 Dec - 08:06:54 10° WSW 08:10:06 22° SSW 08:13:14 10° SE night (unlit)
